Wind_Speed
58 58 59 59 59 60 60 60 60 61 61 63 62 60 59 59 60 61 62 64 64 65 65 66 67 67 67 68 68 67 68 68 67 67 67 67 68 68 68 67 67 65 63 62 60 59 58 57 56 55 53 51 49 48 47 48 48 45 41 38 34 31 28 25 23 22 21 21 22 21 20 19 18 18 18 19 20 22 24 26 27 28 29 29 27
61 61 61 61 60 60 60 61 61 61 62 64 64 62 61 61 61 61 63 64 65 66 66 67 68 68 68 67 67 67 66 66 66 66 66 66 66 66 66 65 64 62 62 60 59 58 57 56 55 53 52 49 48 47 47 48 46 42 38 34 31 28 25 22 21 21 21 21 22 21 19 19 18 18 19 21 22 24 26 27 29 29 30 30 27
64 63 63 62 62 61 61 61 61 62 63 65 65 64 63 62 62 62 63 65 66 66 67 67 68 68 67 66 65 65 64 64 63 63 63 64 64 64 63 63 62 61 60 59 58 57 56 55 54 52 50 48 47 46 46 46 43 38 34 30 28 25 23 21 21 21 21 22 22 21 19 19 19 20 21 22 24 26 28 29 30 30 31 29 27
66 65 64 63 63 62 62 61 62 62 63 65 66 65 64 63 63 64 65 65 66 66 67 67 67 67 65 64 63 62 62 61 61 60 61 61 62 62 62 61 60 60 59 58 57 55 55 54 53 51 50 48 46 45 45 43 39 35 31 28 26 24 21 21 22 22 22 22 22 21 19 20 20 21 22 24 26 28 30 30 30 31 31 29 26
67 66 66 65 64 63 63 63 63 63 64 64 66 66 65 65 64 64 65 65 65 65 65 66 65 65 64 62 61 60 60 60 59 59 59 60 60 61 61 60 59 58 57 56 55 55 54 53 52 50 49 47 45 43 42 39 36 32 29 27 25 22 21 21 22 22 22 23 23 21 20 20 21 22 24 25 27 29 31 31 31 31 30 28 25
67 67 67 66 65 65 65 64 64 64 64 65 66 66 66 65 65 64 64 64 63 63 63 64 64 63 62 61 60 60 59 59 59 58 58 58 59 60 60 59 58 56 55 55 55 54 54 52 51 49 47 46 43 40 39 36 33 30 28 27 24 22 21 23 22 21 22 22 22 21 20 21 22 24 26 28 29 30 31 31 31 30 29 26 23
67 67 67 67 66 65 65 65 64 65 65 65 65 65 65 65 64 63 62 61 61 61 62 63 63 63 62 61 60 60 59 59 58 57 57 57 58 58 58 57 56 55 54 54 54 53 53 51 49 47 46 43 39 37 36 33 31 29 28 26 22 21 22 24 23 21 21 21 21 21 21 22 24 25 27 29 30 31 31 31 30 28 26 24 22
68 67 67 67 66 66 65 65 65 65 65 65 65 64 64 63 62 61 60 60 60 60 62 63 63 63 62 61 61 60 59 59 58 57 56 56 56 56 56 56 54 53 53 53 52 51 50 48 47 44 43 40 36 35 34 31 30 29 27 24 22 21 23 23 21 19 18 18 19 20 22 23 25 26 28 30 31 31 30 29 28 25 24 23 22
67 67 67 67 66 66 65 65 65 65 64 64 64 63 62 61 60 60 59 59 60 61 62 62 63 62 62 62 61 60 59 59 58 57 56 54 54 54 54 54 53 52 52 51 49 47 45 44 43 41 38 36 35 34 32 30 29 27 25 23 22 22 23 21 18 16 16 17 18 20 22 24 25 27 28 30 30 30 29 28 26 25 24 24 22
67 67 67 66 66 65 65 65 64 64 64 63 62 61 60 60 59 59 59 59 60 61 62 62 62 62 62 61 61 60 59 58 57 56 54 53 52 52 52 52 52 51 50 48 45 43 41 40 39 36 33 33 34 34 31 29 27 24 22 22 23 22 20 18 15 14 15 17 19 21 23 25 26 27 28 29 29 28 28 26 25 26 26 25 22
66 66 65 65 65 65 65 64 63 63 62 61 60 59 59 59 59 59 59 59 60 61 62 62 62 61 61 60 60 59 58 57 56 54 53 52 51 51 51 51 51 49 47 44 42 41 41 40 37 32 31 33 34 32 29 26 24 22 21 22 23 21 18 15 14 14 16 18 20 22 24 25 26 27 28 28 27 27 26 26 26 27 26 24 20
64 64 64 64 64 63 63 62 62 61 60 60 59 59 59 59 59 59 59 60 61 61 62 62 61 61 60 60 59 58 57 56 54 53 52 51 50 50 50 50 49 47 44 43 43 43 43 41 36 30 31 33 33 30 26 23 22 21 22 22 21 20 18 14 13 15 17 19 21 23 24 24 25 26 26 26 26 25 25 26 27 27 25 21 17
62 62 62 62 62 62 62 61 61 61 60 60 60 59 59 59 59 59 60 60 61 61 61 61 61 60 60 59 58 57 55 55 53 52 52 51 50 49 49 49 47 44 43 43 43 44 44 40 34 31 32 32 31 27 24 21 21 21 23 22 20 20 18 14 15 16 18 20 22 23 23 24 24 25 25 25 24 24 24 26 26 25 22 18 13
62 62 62 62 62 62 62 62 62 61 61 61 60 60 60 60 60 60 60 61 61 61 61 61 60 60 59 58 57 55 55 54 53 52 52 51 50 49 48 47 45 42 42 42 43 44 42 37 33 32 32 31 28 24 21 20 21 22 23 21 19 19 16 15 16 17 20 22 22 22 23 23 23 23 23 23 23 23 24 25 25 22 19 15 10
63 63 63 63 63 63 63 63 63 62 62 62 61 61 61 60 60 61 61 61 61 61 61 61 60 59 58 57 56 55 54 54 53 52 52 51 49 48 46 45 43 41 41 41 42 42 39 35 32 32 32 29 25 21 20 20 21 23 22 20 19 18 15 15 16 18 21 22 22 22 22 21 21 22 22 22 21 22 23 24 22 20 16 13 9
64 64 64 64 64 64 64 64 64 64 63 63 62 62 61 61 61 61 62 61 61 61 61 60 60 59 58 56 55 55 54 53 53 52 52 51 49 46 44 42 41 40 40 40 41 39 37 34 31 31 30 27 22 18 19 20 21 23 22 20 20 19 16 16 16 19 22 22 22 21 20 20 21 22 21 20 20 21 22 23 21 18 15 12 10
65 65 65 65 65 65 64 64 64 64 63 63 63 62 62 62 62 62 62 61 61 61 61 60 60 59 57 56 55 54 53 53 53 52 51 49 47 43 41 40 39 39 38 40 40 37 36 33 30 30 29 26 20 17 18 20 22 22 21 21 22 21 18 16 17 20 22 22 22 20 19 20 21 21 20 19 19 19 22 22 20 17 15 13 11
66 66 66 66 66 66 65 65 65 64 64 64 63 63 63 63 63 63 62 61 61 61 61 60 60 58 56 55 54 53 52 51 51 50 49 47 43 40 38 37 36 36 38 40 39 36 35 32 29 29 28 25 19 17 19 21 23 23 22 22 24 22 17 16 17 20 22 22 22 20 19 20 21 20 19 18 18 19 21 22 20 17 15 14 12
68 68 68 68 67 67 67 66 66 65 65 64 64 64 64 64 64 63 62 62 61 60 59 58 57 55 54 52 51 49 49 49 49 48 46 43 40 37 35 34 34 36 39 40 38 36 34 30 29 28 26 24 20 19 20 22 24 24 23 22 21 18 15 15 17 20 22 22 22 20 19 19 20 19 18 18 17 18 20 22 21 18 15 13 13
69 69 69 69 69 69 68 68 67 66 66 65 65 65 65 65 64 63 62 59 57 55 54 53 51 49 48 47 47 46 46 46 45 44 41 38 36 34 32 31 33 37 40 38 36 35 32 29 27 27 25 23 21 21 22 23 25 25 23 20 17 15 14 15 18 20 22 22 21 20 19 18 19 18 18 17 17 17 19 21 21 19 15 12 12
69 70 70 70 70 70 70 69 68 67 66 65 64 64 63 62 60 58 55 52 50 49 47 45 46 46 46 45 44 43 43 42 40 38 36 34 32 30 30 31 34 38 38 36 35 33 30 27 26 26 25 23 23 24 24 24 24 25 22 17 13 13 15 17 18 20 22 22 21 20 18 17 18 18 18 16 16 17 18 19 19 19 17 12 11
69 70 70 70 70 69 68 67 66 64 63 62 61 58 55 52 50 46 43 43 43 43 43 45 48 49 46 43 40 38 37 36 35 34 33 32 30 29 30 33 36 37 36 34 34 33 29 27 26 26 25 25 26 26 27 25 25 25 20 14 13 14 16 18 19 21 22 22 20 19 17 17 17 18 18 17 16 17 18 19 18 18 18 14 10
67 68 67 66 65 64 63 62 60 59 58 56 52 48 45 41 37 36 38 41 43 44 47 50 50 46 41 37 34 33 33 33 33 33 32 30 30 30 32 35 36 35 33 34 34 32 29 27 27 27 27 28 28 28 28 27 26 26 20 13 14 15 17 19 21 22 22 22 21 18 16 17 17 18 19 18 17 17 18 19 18 17 18 17 11
64 64 63 61 60 59 57 56 54 53 51 47 43 41 38 35 34 38 41 43 44 45 47 47 44 38 34 32 31 31 32 33 33 32 32 31 31 33 35 37 36 33 32 35 35 32 29 27 27 28 28 29 29 29 29 28 27 26 21 15 15 16 18 20 22 23 23 22 20 17 16 17 18 19 19 19 18 18 19 20 19 17 17 18 14
57 55 55 56 56 53 48 45 43 42 41 41 41 40 39 39 38 39 39 37 37 38 38 38 36 32 30 29 30 31 32 32 32 32 33 33 34 36 37 38 35 32 34 37 35 32 30 28 28 29 29 29 30 30 30 29 28 26 21 17 17 18 19 21 23 23 22 21 19 17 17 18 19 19 19 19 20 22 23 23 23 19 16 17 17
44 44 44 46 47 46 41 35 34 35 37 40 41 40 40 39 37 36 33 31 31 30 30 30 28 27 27 28 29 30 30 30 32 33 35 36 37 37 38 38 35 34 37 38 35 33 32 31 30 29 29 29 29 30 30 29 28 25 21 19 19 19 21 22 23 23 22 20 18 17 17 19 20 20 19 20 23 25 27 26 26 22 18 17 18
31 36 39 39 39 40 39 35 35 39 41 42 41 39 38 37 36 36 33 30 28 27 27 26 24 23 24 26 27 28 29 30 32 34 36 37 37 38 40 38 36 37 39 37 35 34 34 33 31 29 28 29 29 30 30 29 26 23 21 20 20 21 22 23 24 24 21 19 17 16 18 19 20 21 21 23 25 27 27 27 26 24 19 17 18
30 33 37 39 40 39 41 41 42 45 45 44 41 37 36 35 36 36 34 32 30 28 27 26 23 23 24 26 27 29 30 31 32 34 35 37 38 39 40 39 39 39 38 36 35 35 34 33 32 29 28 28 29 29 28 28 25 22 21 20 21 22 23 25 26 24 20 18 17 17 18 20 21 23 24 26 27 27 27 26 26 25 20 18 20
41 43 45 45 44 41 42 45 46 46 44 43 40 35 33 34 35 36 34 33 32 30 29 27 25 24 24 25 27 29 31 33 34 34 36 38 40 40 39 40 41 39 37 36 36 34 33 33 32 29 27 26 26 27 27 26 24 21 21 21 22 23 24 26 26 23 20 18 17 18 20 22 24 25 26 28 29 28 28 27 28 27 22 19 19
47 50 52 49 45 42 42 44 45 44 43 43 42 39 36 32 30 32 34 34 33 32 29 27 26 25 25 27 29 32 35 36 36 37 39 40 40 39 39 41 41 39 37 36 36 35 33 31 29 28 26 24 24 24 25 24 22 21 22 23 24 25 26 26 25 21 19 18 19 20 22 25 26 27 29 29 28 28 28 28 28 25 20 17 18
49 50 54 53 48 45 44 44 44 44 43 45 46 45 40 33 29 32 37 36 34 32 30 28 27 27 27 29 32 35 37 38 40 41 41 41 40 39 40 41 40 39 38 37 36 36 33 30 27 26 25 23 23 24 24 22 21 22 24 25 26 26 26 25 22 19 19 19 20 21 24 26 26 27 28 26 25 25 26 27 25 20 16 16 16
51 51 56 59 55 52 51 50 49 49 49 49 49 46 40 34 34 38 41 41 38 34 32 31 31 30 31 35 39 39 40 41 43 44 43 41 40 40 40 40 39 39 38 37 37 36 33 29 25 24 24 24 24 24 23 21 21 24 25 26 27 26 25 22 19 19 20 20 21 23 25 24 23 26 27 24 24 25 26 26 21 16 14 14 14
58 56 59 62 61 59 58 57 56 56 55 53 51 48 42 38 40 45 47 48 45 40 38 38 38 38 41 46 48 47 46 46 45 45 43 42 41 41 40 39 38 38 37 38 38 36 32 27 24 23 23 24 24 24 23 22 23 26 27 27 26 25 23 19 18 19 21 21 23 23 23 21 23 28 29 26 25 26 27 24 17 13 12 12 11
64 64 66 67 65 63 62 60 59 58 56 55 54 51 48 46 47 48 48 49 48 47 46 45 45 47 50 52 53 51 49 48 46 44 44 43 42 41 39 38 37 37 38 39 38 35 30 26 23 22 22 23 24 23 23 24 25 26 26 26 25 23 20 18 19 21 22 23 24 24 24 23 25 30 30 27 27 28 26 21 15 14 12 11 11
63 65 66 67 67 67 65 62 60 60 59 59 59 56 52 51 50 48 47 47 48 49 49 50 52 54 56 55 54 52 50 49 47 44 43 42 41 40 38 37 37 38 38 38 36 33 29 26 24 22 22 22 23 23 24 25 25 24 24 25 24 21 18 18 20 21 22 23 25 26 26 26 25 25 25 26 26 25 23 17 14 15 14 14 14
63 63 63 64 65 65 64 63 63 63 63 62 61 59 57 55 54 52 51 51 51 53 55 57 58 58 58 55 53 52 50 49 46 44 43 41 39 38 37 37 39 39 38 37 35 32 30 28 26 23 22 22 22 24 24 24 23 23 24 25 23 19 17 18 21 22 23 24 25 26 25 24 21 20 21 22 22 20 18 15 14 14 14 14 16
64 64 64 63 63 63 63 63 63 64 64 63 61 61 60 59 59 58 58 58 58 60 60 60 60 59 57 54 52 51 48 47 46 44 42 40 38 36 37 38 39 38 37 36 34 32 31 29 26 24 22 21 22 22 22 21 22 24 25 24 21 18 18 19 21 23 24 24 25 24 21 19 18 18 17 18 19 18 17 17 15 13 12 12 14
62 63 64 64 64 64 63 62 62 62 63 62 62 62 62 62 61 61 61 61 61 61 61 61 59 57 55 53 52 49 46 46 46 42 40 38 36 35 35 36 37 36 36 34 32 31 29 27 24 22 21 21 21 21 21 22 23 25 25 23 20 18 18 20 21 23 24 24 24 22 20 19 19 19 17 17 19 19 18 17 15 13 12 14 15
62 62 62 63 64 63 63 62 60 60 61 62 62 62 62 62 62 62 62 62 61 61 60 59 57 55 53 52 50 48 46 45 44 42 39 37 36 35 35 36 36 35 33 31 29 28 26 23 22 22 22 21 21 22 22 23 24 25 24 22 20 19 19 20 22 23 24 23 22 21 21 21 22 22 20 19 19 20 18 15 15 15 15 16 17
62 61 61 61 62 62 61 61 60 60 60 61 62 62 62 63 63 63 62 61 60 59 58 56 54 53 51 50 49 47 45 44 43 41 39 39 38 36 36 36 35 32 29 28 27 26 24 22 22 22 23 22 22 23 23 23 25 25 23 21 20 20 20 20 22 23 23 22 21 21 22 22 22 21 20 19 17 19 19 17 18 19 19 19 20
60 60 60 60 61 61 61 60 58 57 57 58 59 60 61 62 62 62 60 58 57 56 55 53 52 50 49 48 47 45 44 43 41 40 39 38 37 36 36 34 31 28 27 26 25 24 23 22 23 23 23 23 23 23 23 24 25 24 22 20 19 19 20 20 21 21 21 21 20 20 22 22 20 19 20 20 18 18 21 20 19 21 23 23 23
58 58 58 58 59 60 61 60 57 55 56 56 56 56 57 58 58 57 56 55 55 54 52 50 49 48 47 46 45 44 42 41 40 39 37 37 36 35 34 31 29 27 26 25 25 23 23 23 23 24 23 23 23 24 25 25 24 23 21 19 18 19 19 20 20 20 20 19 17 18 20 20 18 17 18 20 20 20 23 22 20 22 24 23 22
56 56 56 56 57 58 59 58 57 56 57 59 58 55 55 56 55 54 54 53 53 52 50 49 47 46 45 44 43 42 41 40 38 37 36 35 35 34 32 30 29 28 27 26 25 24 23 23 23 23 23 23 24 25 25 24 23 21 19 18 18 18 19 20 20 19 19 17 16 17 18 17 16 15 16 17 20 21 23 24 23 24 25 25 24
54 54 54 54 54 55 55 55 54 54 55 57 57 56 57 58 56 54 53 52 51 50 48 47 46 45 44 43 41 40 39 38 36 34 33 33 33 32 32 31 30 28 28 27 27 26 25 24 23 23 23 23 24 24 24 23 21 20 18 18 18 18 19 20 20 19 18 16 16 17 17 16 14 14 16 17 19 21 23 25 25 26 28 28 28
52 51 51 50 51 52 52 52 52 51 52 52 54 55 56 56 55 53 51 49 48 47 46 45 44 43 42 40 38 37 36 34 32 31 30 30 30 30 31 31 30 28 27 27 27 27 26 24 23 22 23 23 23 24 23 21 20 18 18 18 18 19 19 20 20 20 19 18 18 19 18 17 15 15 19 22 23 25 27 28 30 31 31 32 31
50 49 48 48 48 48 49 49 49 49 50 50 51 52 53 52 51 50 48 47 45 44 43 42 41 41 39 38 36 35 33 31 28 27 26 27 27 28 29 29 28 27 26 26 27 27 26 24 23 22 22 23 24 23 22 20 19 18 18 19 20 20 21 21 22 21 20 19 19 19 19 17 16 16 20 24 27 30 31 32 34 34 34 34 33
48 47 47 46 45 46 46 46 46 47 48 49 49 50 50 49 48 47 46 44 43 42 41 40 39 38 37 35 33 31 29 27 25 24 24 25 26 27 27 26 25 25 25 25 26 26 25 24 23 23 23 24 24 23 21 20 20 20 20 22 22 22 22 23 23 23 22 21 20 20 19 18 17 16 18 21 25 29 33 35 37 37 37 37 37
46 46 45 43 42 43 43 43 44 45 46 46 47 47 46 46 45 44 44 42 41 40 38 38 37 36 33 30 27 25 24 24 25 25 25 26 26 26 24 24 24 24 24 24 25 25 25 24 24 24 24 25 24 23 23 23 23 23 24 25 25 24 24 24 25 24 23 22 22 21 20 19 18 17 17 18 20 23 28 33 37 39 40 40 40
44 44 42 40 40 40 40 41 41 42 42 42 42 43 43 43 43 43 42 41 40 38 37 36 35 32 29 25 23 23 25 26 27 27 26 26 25 23 22 22 23 23 24 24 24 25 25 25 25 24 24 25 25 26 26 26 26 27 27 27 26 26 26 26 26 25 24 23 23 23 22 21 20 19 19 18 19 20 22 26 30 33 35 35 35
42 41 39 38 38 38 38 38 38 38 38 37 38 41 41 41 41 41 41 40 38 37 36 35 34 31 30 29 28 29 29 29 28 27 26 24 24 23 22 21 22 22 22 23 23 24 24 25 25 25 25 26 27 28 29 29 30 30 29 28 27 27 27 27 27 27 26 25 25 25 25 24 23 22 21 20 20 21 22 23 25 27 27 28 27
39 37 36 36 37 36 35 34 34 34 31 31 37 42 40 39 39 40 40 39 38 36 35 34 33 31 31 31 31 31 30 30 29 27 25 24 24 24 23 22 22 21 21 21 22 22 22 23 24 26 27 29 29 30 31 32 32 32 30 29 28 28 28 28 29 28 27 27 27 28 27 26 25 24 23 22 22 23 24 25 25 26 26 27 27
Wind_Direction
278 279 281 283 284 285 287 287 288 288 288 288 288 289 289 289 289 290 291 292 294 295 296 296 297 297 297 297 298 298 298 299 299 299 300 300 301 302 303 304 306 308 309 310 311 312 313 314 314 313 314 314 315 315 315 314 314 314 314 313 312 313 314 315 319 321 322 322 323 321 317 315 313 312 313 313 314 314 314 314 314 315 314 312 307
279 280 281 281 282 284 285 286 287 288 288 288 288 289 289 289 289 290 290 291 293 294 295 296 296 296 297 297 298 299 299 299 299 300 301 301 302 303 304 306 307 308 309 310 311 312 313 314 313 313 313 314 315 315 314 313 313 314 314 313 312 313 313 317 321 322 322 324 324 321 316 313 311 311 311 313 314 313 313 312 311 311 312 311 306
280 280 280 281 281 282 283 284 286 286 287 287 287 288 289 289 289 290 290 291 292 294 295 295 296 297 297 298 299 300 300 300 301 301 302 303 304 304 305 307 308 309 310 311 311 312 313 314 313 313 313 313 315 315 313 312 313 314 313 312 311 312 314 318 321 322 323 325 324 321 316 312 311 312 313 313 312 311 311 310 308 308 310 309 304
280 280 280 280 280 281 282 283 284 285 286 286 286 287 288 289 289 290 290 292 293 293 294 295 296 297 298 299 300 301 301 302 302 303 304 305 305 306 307 307 308 309 310 311 312 313 314 314 313 312 312 313 314 313 311 311 313 313 311 310 310 311 314 318 321 322 324 324 323 321 315 312 312 313 313 311 309 308 309 308 306 306 308 307 302
279 279 279 279 280 281 282 283 283 284 284 284 285 286 288 289 290 291 291 292 293 294 295 296 297 298 299 300 301 301 302 302 303 305 305 306 306 307 307 308 309 310 311 312 313 314 314 313 312 312 312 313 313 311 310 311 312 311 309 309 310 312 314 318 321 322 322 321 320 319 315 311 310 310 309 308 307 306 306 305 304 305 306 305 300
278 278 278 278 279 280 281 282 283 283 283 283 284 286 288 289 290 291 292 293 294 295 296 296 297 297 298 300 301 301 302 303 304 305 306 306 307 307 308 308 309 310 312 313 314 314 313 312 311 311 311 311 311 308 309 311 311 309 309 309 311 313 316 319 320 319 319 318 317 316 314 311 308 308 308 307 307 306 305 304 304 305 305 302 297
276 276 277 277 278 279 280 281 281 281 282 283 284 286 288 289 290 291 292 293 294 295 296 296 296 297 298 299 300 301 302 303 304 305 305 306 307 308 308 308 310 311 313 314 315 314 313 312 311 310 310 310 308 307 310 311 309 309 309 311 313 314 317 319 317 316 315 315 315 315 313 310 308 308 308 308 307 306 305 305 305 305 304 302 297
275 276 276 277 278 279 279 280 280 281 282 283 284 286 287 289 290 291 292 293 294 294 295 295 295 297 298 299 300 301 302 303 304 305 306 307 308 308 308 309 311 313 314 315 315 314 313 312 311 309 309 309 306 308 310 309 309 309 311 313 315 315 317 317 314 312 312 313 313 312 310 308 308 308 308 308 307 306 306 306 305 305 306 306 300
275 276 276 277 278 278 279 279 280 281 282 283 284 286 287 288 289 290 291 292 293 293 293 294 295 296 298 299 301 302 302 303 304 305 306 308 308 308 308 309 311 313 314 315 316 316 315 314 311 309 310 307 306 309 309 308 309 310 312 315 316 316 317 315 312 311 312 312 311 309 306 306 307 308 308 308 307 306 305 304 304 307 310 309 301
274 275 276 277 278 278 279 279 280 281 282 283 284 286 286 287 288 290 291 292 292 292 292 293 295 296 298 300 301 302 302 303 304 306 307 308 308 308 309 310 311 313 314 315 316 317 317 316 312 310 309 306 307 308 308 309 310 311 314 316 316 317 318 315 312 314 315 314 312 308 307 308 309 309 309 307 306 305 304 304 308 313 313 309 300
274 275 276 277 277 278 279 279 280 281 282 283 284 285 286 287 288 289 290 291 291 291 292 293 295 297 298 299 300 301 302 303 304 306 307 307 308 308 309 310 311 313 314 314 316 316 316 315 312 309 306 305 307 307 308 310 310 313 316 316 317 319 319 314 312 316 317 317 315 312 311 311 311 310 308 307 305 304 306 311 316 318 315 307 297
275 275 276 277 277 278 279 280 280 281 282 283 284 285 286 287 288 289 289 290 290 291 292 293 295 297 298 299 300 301 301 303 304 305 306 306 307 308 309 310 311 312 312 312 314 314 314 313 310 305 304 307 307 305 308 309 310 314 317 318 319 320 319 314 314 317 318 320 318 315 314 312 311 309 307 306 306 307 312 319 322 320 314 304 293
275 275 276 276 277 278 279 280 280 282 283 284 284 285 286 286 287 288 289 289 289 290 292 293 295 296 297 298 299 300 301 302 303 304 304 305 307 308 309 309 310 310 310 311 313 313 313 312 308 304 306 308 305 304 306 308 312 316 318 319 320 321 318 314 316 318 320 322 320 317 315 312 310 308 307 308 309 313 319 324 326 322 313 301 292
275 275 276 276 277 278 279 280 281 282 283 283 284 284 285 286 287 287 288 288 288 290 291 292 294 295 296 297 298 299 299 300 302 302 303 305 307 308 308 308 308 307 308 310 313 313 313 312 309 306 307 306 302 303 305 309 315 317 318 318 320 320 316 313 315 318 322 323 321 317 314 312 310 309 310 310 312 317 324 328 328 325 314 301 294
275 275 276 276 277 278 280 281 281 282 282 283 283 284 285 286 286 286 286 286 288 289 290 291 293 294 295 295 296 297 298 299 301 301 303 304 306 308 307 306 305 304 306 309 313 314 314 313 309 306 305 302 300 304 306 311 316 317 317 315 317 317 311 310 312 317 322 322 320 316 313 312 309 310 312 312 315 320 326 330 333 331 320 307 307
275 275 276 276 277 279 280 280 281 281 282 283 283 284 284 284 284 284 284 285 287 289 290 291 292 292 293 293 294 296 297 299 300 301 302 304 306 307 305 303 301 302 304 310 314 315 314 312 308 303 301 299 302 306 307 313 317 317 315 310 311 310 304 304 310 317 321 321 319 315 312 310 310 312 313 313 316 321 326 332 337 339 329 319 322
274 275 276 277 277 278 279 280 280 281 281 282 282 283 283 283 282 282 284 286 287 288 290 290 291 290 291 291 293 294 296 298 299 301 302 304 305 306 303 299 299 300 304 312 315 315 314 311 306 301 299 299 304 306 308 315 317 315 311 306 306 304 297 299 309 318 320 320 318 315 311 310 311 313 314 314 316 321 326 332 340 344 337 327 327
274 275 276 277 278 278 279 279 279 280 280 281 282 282 282 281 281 283 285 286 288 289 290 289 289 288 288 290 292 294 296 297 299 301 302 303 304 304 300 296 296 300 307 314 316 315 314 309 304 301 298 300 304 305 310 317 316 314 310 305 304 300 292 296 310 317 319 319 317 314 311 310 311 313 314 314 315 320 325 331 338 344 341 330 324
275 275 276 277 277 278 278 278 278 279 279 280 281 281 281 281 283 285 286 287 288 289 288 287 287 286 288 289 291 294 296 298 299 300 301 302 301 300 296 293 296 303 310 315 315 315 314 307 303 301 299 301 305 306 311 316 315 312 309 306 302 296 290 298 310 317 318 318 317 313 309 310 311 313 313 313 314 318 323 328 335 341 341 332 322
276 276 277 277 277 277 277 277 277 278 279 280 280 281 282 283 285 286 287 287 287 286 286 286 287 288 289 291 293 296 298 299 300 300 301 300 297 294 292 293 300 307 312 314 314 315 312 306 302 301 301 303 306 307 310 314 313 311 309 306 298 292 295 304 313 317 318 316 315 311 308 310 311 312 311 310 312 315 319 323 329 335 337 333 322
276 277 277 277 277 277 277 277 278 278 279 280 281 282 284 285 286 286 286 285 284 283 284 286 288 290 290 292 296 298 300 300 300 301 300 297 293 291 291 297 305 310 312 312 314 315 310 305 302 302 302 302 305 307 308 310 311 310 308 303 294 295 303 309 314 317 317 315 313 309 307 310 311 311 309 307 308 309 312 316 320 327 331 331 324
276 277 277 277 277 277 278 278 278 279 280 280 281 282 283 284 285 284 283 282 281 281 283 287 289 290 291 294 298 299 300 301 301 300 297 293 290 289 294 302 309 311 310 311 315 314 308 303 301 302 301 300 303 305 306 308 309 308 305 299 294 300 307 312 316 317 316 314 310 306 305 309 310 308 307 305 305 307 309 310 309 315 323 326 323
276 277 277 277 277 277 278 279 279 279 279 278 278 279 281 282 281 280 281 282 282 282 284 286 288 290 293 295 297 299 300 301 300 296 293 290 288 291 299 306 310 309 309 312 315 312 307 302 300 300 300 300 302 303 304 305 307 305 301 294 294 301 308 314 318 317 314 311 307 303 303 307 308 306 305 303 301 305 312 313 306 304 313 319 318
277 278 278 278 278 278 279 279 278 277 275 273 273 274 276 276 277 280 283 284 283 283 284 285 287 290 293 294 296 298 299 299 297 293 290 288 289 294 301 307 308 307 309 313 312 309 304 301 300 300 300 300 301 301 301 303 303 300 296 290 292 299 307 313 316 313 309 307 303 299 302 306 307 306 305 302 298 301 311 316 310 299 300 309 311
282 282 282 279 276 275 276 276 274 272 270 270 272 275 274 275 278 282 284 286 286 285 286 287 288 290 292 292 294 297 299 297 294 291 290 290 291 296 302 305 305 305 310 312 309 306 303 300 300 300 299 297 297 297 297 299 298 296 293 288 290 295 302 309 311 309 305 301 298 296 301 305 307 308 306 301 298 298 303 310 311 302 289 294 300
283 284 285 280 274 269 268 269 269 270 272 273 275 277 277 277 278 279 282 289 291 291 292 292 291 291 291 291 293 296 297 295 292 292 292 292 291 295 302 303 301 304 310 309 307 305 302 300 300 299 296 294 294 293 293 294 293 292 290 287 289 294 299 305 308 307 302 296 293 294 300 304 308 309 305 300 298 298 300 303 307 303 286 278 285
275 277 278 275 271 264 259 261 264 268 272 274 276 277 277 275 273 275 282 288 292 294 296 295 294 293 291 289 292 294 294 293 292 293 293 292 291 296 301 300 298 304 308 307 306 305 302 300 300 297 292 290 290 289 290 291 289 288 287 287 290 296 300 304 307 307 300 292 291 295 300 303 307 308 305 301 301 301 301 302 304 301 286 268 273
252 263 267 264 266 263 256 256 259 264 268 270 273 275 276 273 271 274 281 286 289 290 291 291 291 291 290 290 291 292 292 292 294 295 295 293 292 296 299 298 299 304 306 306 307 307 304 300 299 296 291 287 287 287 287 288 287 285 285 288 292 297 301 304 307 306 298 291 293 298 300 300 303 305 305 304 304 303 302 302 301 298 286 264 264
237 248 258 259 261 260 255 254 256 260 262 265 269 271 274 273 272 275 280 285 285 283 282 283 284 287 290 292 293 293 295 296 297 296 295 294 295 297 297 297 300 303 304 305 308 307 304 300 297 294 290 288 286 285 286 285 284 283 285 289 293 297 301 304 307 303 294 290 295 299 300 301 302 305 307 307 304 303 301 300 299 296 285 262 257
236 244 252 257 259 258 255 255 256 258 261 265 266 266 270 273 273 274 277 282 283 279 276 276 279 284 290 296 297 298 301 300 298 296 295 295 295 295 296 297 299 301 301 304 307 306 304 300 297 292 289 288 285 283 284 283 282 284 288 292 294 297 301 303 302 297 289 290 297 302 305 305 305 306 310 309 305 304 304 301 296 290 277 258 257
238 245 249 253 258 260 257 256 255 257 263 267 267 268 269 267 263 266 271 278 281 278 275 275 279 284 290 296 299 299 300 298 296 296 294 293 294 294 295 297 298 298 299 302 305 305 303 299 295 291 288 286 283 282 282 281 282 286 288 291 293 296 298 298 295 289 284 289 298 307 311 309 305 307 312 310 305 305 305 303 295 281 266 258 262
239 245 248 251 254 259 261 260 259 262 267 268 270 270 266 258 255 261 267 273 278 277 274 277 281 284 288 294 297 296 296 295 295 294 292 290 291 293 295 296 296 296 297 301 305 306 303 298 293 290 287 284 281 280 279 280 282 283 285 288 291 294 295 293 289 282 283 292 302 310 312 308 304 308 312 307 302 302 304 305 295 276 265 263 264
239 241 247 250 251 255 260 262 263 265 267 267 269 269 264 258 258 263 267 270 273 274 274 277 280 282 285 291 294 293 294 295 294 292 290 289 290 293 295 296 295 295 297 302 305 306 302 296 292 291 287 282 278 276 277 278 279 280 284 287 290 292 293 290 284 281 287 296 302 306 305 301 303 307 308 302 297 299 302 302 289 269 269 274 276
238 240 244 248 251 254 257 260 262 263 264 265 266 267 265 264 265 267 268 267 269 271 272 275 276 280 284 288 290 290 291 293 293 290 288 288 290 294 295 295 294 296 299 303 305 305 301 295 292 291 286 280 276 274 273 274 276 279 282 285 290 292 291 288 284 284 291 296 297 301 299 296 302 303 300 296 293 295 297 294 279 264 263 268 276
239 241 243 247 251 253 255 258 260 262 263 264 265 266 266 266 266 266 267 266 267 269 271 273 276 281 285 287 288 288 290 291 290 288 287 288 291 293 293 293 295 298 301 303 303 303 298 292 290 289 282 277 274 271 270 271 273 276 280 285 290 290 288 287 286 287 291 293 295 300 300 299 303 300 294 291 290 293 292 283 274 269 264 260 259
239 242 245 247 249 251 254 256 258 261 263 264 265 266 266 267 266 265 266 267 268 270 272 275 278 282 284 286 286 287 289 289 288 286 285 287 289 290 290 292 295 298 300 301 301 299 294 289 287 285 279 273 270 268 267 267 270 275 281 287 289 287 286 288 288 290 291 292 295 301 302 299 297 291 289 291 291 291 285 274 273 275 274 273 264
239 241 244 245 247 249 251 254 257 260 262 264 264 265 265 266 267 266 267 268 270 272 274 276 278 281 283 284 284 285 286 285 284 284 284 285 286 287 288 291 295 297 298 298 297 295 292 289 285 281 275 269 265 263 261 263 270 278 284 286 287 284 283 284 287 289 290 292 296 298 295 285 280 277 278 283 286 287 279 272 271 271 274 280 275
241 242 244 245 246 248 251 253 255 257 261 263 265 266 267 268 268 268 268 269 271 272 274 276 278 280 282 282 283 283 282 281 282 283 283 284 285 287 289 292 294 296 296 296 294 293 291 288 283 277 270 264 260 258 258 263 271 279 282 282 281 279 279 281 286 289 290 293 294 292 283 270 270 275 271 267 273 279 276 270 272 275 277 280 278
244 245 246 248 248 249 251 253 254 255 257 261 263 266 267 269 269 269 270 271 272 273 275 277 279 280 282 282 282 282 282 281 282 282 282 282 284 286 290 293 294 294 294 293 291 290 288 284 279 272 264 258 255 255 259 266 273 277 278 277 277 279 280 283 287 289 291 292 291 288 281 273 274 276 268 261 263 269 271 268 271 275 277 277 274
247 247 247 249 251 252 252 254 255 256 257 259 261 263 265 267 268 269 269 271 272 273 274 276 278 279 280 280 280 281 281 281 281 282 282 283 284 286 290 293 293 292 291 290 288 287 285 280 274 268 260 256 256 259 265 271 275 276 276 277 279 282 285 286 288 289 290 290 289 287 283 279 280 274 261 254 254 262 265 260 259 260 261 264 266
247 248 248 249 251 253 254 256 257 260 262 262 262 263 263 264 265 267 268 270 271 272 273 275 277 277 278 279 279 280 280 281 282 282 283 284 285 288 291 291 290 289 288 288 287 284 280 276 271 266 261 260 262 265 271 274 274 275 276 278 281 283 285 285 286 287 288 288 286 284 283 283 282 271 257 249 244 253 258 253 252 255 256 259 262
245 247 248 249 251 253 254 256 257 258 259 260 261 262 264 264 265 266 268 270 271 272 273 275 276 276 277 277 278 279 280 281 282 282 282 283 285 288 288 287 287 286 286 289 289 282 277 274 270 268 266 266 267 270 273 272 272 274 276 277 279 281 283 284 284 284 285 285 280 277 281 285 281 268 255 246 239 246 255 255 254 257 261 264 267
244 245 247 249 251 253 254 255 256 255 255 257 259 260 263 266 268 269 271 271 272 273 274 275 275 275 276 277 278 280 281 281 281 281 281 281 283 284 284 284 286 286 287 290 286 280 276 273 270 269 269 269 269 270 269 269 271 273 274 275 278 282 284 284 284 283 283 280 273 272 275 276 274 265 256 247 239 240 249 255 257 258 262 267 270
244 244 245 247 250 252 253 255 256 256 256 258 260 261 263 266 269 271 272 272 272 274 274 274 274 274 275 277 278 280 280 280 280 279 279 279 279 280 281 283 284 285 287 285 281 277 275 272 270 270 269 268 267 266 266 268 270 270 271 276 280 284 285 285 282 281 281 274 266 270 271 268 268 266 261 258 252 248 249 252 251 251 255 260 262
245 245 245 246 248 251 253 254 255 256 256 258 260 262 263 265 267 269 270 271 271 272 273 273 274 275 276 277 278 279 279 279 278 277 276 276 276 277 279 280 282 283 282 279 275 274 272 270 268 268 267 265 263 263 265 266 267 267 271 277 282 286 286 284 281 278 277 270 263 269 271 267 269 262 253 252 253 252 251 249 247 245 248 252 255
245 246 246 246 248 250 251 253 254 255 256 257 258 260 262 264 266 267 268 269 270 271 271 273 274 275 275 276 277 277 278 278 276 274 273 273 273 275 277 278 278 277 275 272 270 269 267 266 265 265 264 262 261 262 261 261 263 266 272 278 282 285 285 283 280 276 274 266 261 267 270 267 267 261 250 245 245 245 245 245 246 247 248 249 252
245 245 245 246 247 249 251 252 254 255 256 257 258 260 262 264 266 268 268 269 269 270 271 272 273 274 275 276 275 275 275 274 272 270 270 271 273 274 275 274 273 271 270 268 266 264 263 262 263 263 262 261 259 257 255 257 262 266 272 278 281 282 282 281 278 274 272 264 259 264 268 265 264 265 259 253 249 247 247 247 248 250 251 252 255
245 245 245 245 247 249 251 252 254 256 258 259 261 263 264 266 267 267 268 268 269 270 271 272 273 274 274 273 272 270 268 267 267 268 269 271 272 271 269 268 267 267 266 264 263 261 261 261 261 261 260 259 255 252 253 257 263 269 274 278 280 280 278 277 276 273 270 263 258 261 265 264 263 266 266 265 263 261 258 255 254 255 258 260 262
246 246 246 246 247 249 251 252 255 257 259 262 265 267 267 267 266 266 267 267 268 269 270 271 271 270 268 266 266 265 266 266 266 267 268 268 267 264 263 263 264 264 263 262 261 261 261 261 260 260 259 256 253 252 256 261 266 272 276 278 278 277 275 275 274 272 269 263 259 260 263 263 262 264 267 269 273 275 271 266 262 261 262 264 267
251 250 249 248 248 249 251 253 256 259 263 269 271 269 267 266 266 266 266 267 267 268 269 269 268 265 261 260 262 265 267 266 265 265 264 263 261 259 261 262 262 262 262 262 261 261 261 261 261 260 259 257 256 257 259 264 270 274 276 276 275 274 274 273 272 271 268 263 259 259 261 261 261 263 266 270 273 276 275 271 267 265 265 266 267
256 254 252 249 249 250 252 254 258 262 267 271 270 269 268 268 267 266 267 266 266 266 266 266 265 263 260 260 262 264 264 263 262 262 262 260 259 259 261 261 260 261 263 263 263 263 263 263 263 262 261 261 262 263 264 267 271 274 275 274 273 272 272 272 271 270 268 264 260 259 260 261 261 262 265 268 271 273 273 270 268 268 268 269 270
Height
10899 10899 10899 10901 10900 10900 10899 10898 10898 10897 10895 10894 10893 10894 10893 10892 10891 10888 10886 10883 10882 10881 10880 10879 10878 10878 10877 10875 10874 10872 10871 10869 10868 10867 10865 10863 10861 10859 10857 10856 10854 10853 10851 10849 10848 10846 10844 10842 10839 10837 10835 10833 10831 10828 10826 10824 10821 10819 10817 10815 10813 10812 10811 10810 10809 10807 10806 10805 10804 10802 10801 10801 10800 10799 10798 10797 10796 10795 10794 10793 10792 10791 10789 10789 10788
10895 10895 10895 10895 10895 10895 10894 10893 10893 10891 10890 10888 10887 10888 10888 10887 10886 10884 10882 10879 10877 10876 10875 10874 10873 10872 10872 10870 10869 10868 10866 10865 10864 10863 10861 10859 10857 10855 10853 10851 10850 10849 10847 10846 10844 10842 10840 10838 10835 10833 10831 10829 10827 10825 10822 10820 10817 10815 10814 10812 10810 10809 10808 10807 10806 10805 10804 10803 10801 10800 10799 10798 10798 10797 10796 10794 10793 10792 10791 10790 10789 10788 10787 10786 10784
10890 10890 10890 10890 10889 10890 10889 10889 10888 10886 10884 10881 10880 10881 10882 10881 10880 10879 10877 10875 10873 10872 10870 10869 10867 10867 10866 10866 10864 10863 10862 10860 10860 10859 10857 10855 10852 10850 10848 10847 10846 10845 10843 10842 10840 10838 10836 10834 10832 10829 10827 10825 10823 10821 10818 10816 10814 10812 10811 10809 10807 10806 10805 10804 10804 10802 10801 10800 10799 10798 10797 10796 10795 10794 10793 10792 10791 10790 10789 10788 10786 10785 10784 10783 10782
10885 10884 10884 10884 10884 10884 10884 10884 10883 10882 10880 10877 10874 10874 10876 10876 10875 10874 10872 10871 10869 10867 10866 10864 10862 10862 10861 10861 10860 10858 10857 10856 10856 10855 10854 10851 10848 10846 10844 10843 10842 10841 10839 10838 10836 10834 10833 10830 10828 10825 10822 10821 10819 10817 10814 10812 10810 10809 10808 10806 10805 10804 10803 10802 10801 10800 10799 10798 10797 10796 10795 10794 10793 10792 10791 10790 10788 10787 10786 10785 10784 10783 10781 10780 10779
10879 10878 10878 10878 10878 10879 10879 10879 10878 10877 10876 10873 10870 10869 10870 10871 10870 10869 10867 10866 10865 10863 10861 10859 10858 10856 10856 10856 10855 10854 10853 10852 10852 10852 10850 10848 10845 10842 10840 10839 10839 10838 10836 10834 10832 10830 10829 10827 10824 10821 10818 10816 10815 10813 10810 10809 10807 10806 10805 10803 10802 10801 10800 10800 10798 10797 10796 10795 10795 10794 10793 10791 10790 10789 10789 10788 10786 10784 10783 10782 10781 10780 10779 10777 10776
10872 10872 10872 10872 10872 10873 10873 10873 10873 10872 10871 10869 10867 10865 10865 10866 10865 10864 10863 10862 10861 10859 10857 10855 10853 10851 10851 10851 10851 10850 10849 10848 10848 10848 10847 10845 10842 10839 10836 10835 10835 10834 10832 10830 10828 10827 10824 10823 10820 10817 10814 10812 10811 10809 10807 10805 10804 10802 10802 10800 10799 10798 10797 10797 10796 10794 10793 10793 10792 10791 10790 10789 10788 10787 10786 10785 10784 10782 10781 10779 10778 10777 10776 10774 10773
10866 10865 10865 10865 10866 10867 10867 10867 10867 10866 10865 10864 10863 10862 10861 10861 10860 10859 10859 10858 10856 10854 10852 10850 10848 10847 10847 10847 10846 10846 10845 10844 10844 10844 10843 10841 10839 10836 10833 10831 10831 10830 10828 10826 10825 10823 10820 10818 10816 10814 10811 10808 10806 10805 10804 10802 10801 10799 10798 10797 10797 10796 10795 10793 10792 10792 10791 10790 10789 10788 10787 10786 10785 10784 10783 10782 10780 10779 10778 10776 10775 10774 10773 10771 10770
10859 10859 10859 10859 10860 10861 10861 10861 10861 10860 10859 10858 10858 10858 10857 10856 10856 10855 10854 10853 10851 10849 10847 10845 10843 10843 10842 10842 10841 10841 10841 10840 10840 10840 10840 10838 10836 10833 10829 10827 10827 10827 10825 10823 10821 10819 10816 10814 10812 10810 10807 10804 10802 10802 10800 10799 10798 10797 10795 10795 10794 10793 10792 10791 10790 10789 10788 10787 10786 10786 10785 10784 10782 10781 10780 10778 10777 10776 10775 10773 10772 10771 10770 10769 10767
10853 10853 10853 10854 10855 10855 10855 10855 10855 10854 10854 10853 10853 10853 10852 10852 10851 10851 10850 10848 10847 10845 10843 10841 10840 10839 10838 10838 10837 10837 10836 10836 10836 10836 10836 10835 10832 10829 10826 10824 10823 10823 10821 10819 10817 10814 10812 10810 10809 10807 10805 10801 10799 10799 10797 10796 10795 10794 10793 10792 10791 10791 10790 10788 10787 10786 10785 10784 10784 10783 10782 10781 10780 10778 10777 10776 10774 10773 10772 10771 10770 10768 10767 10766 10764
10848 10848 10848 10849 10849 10849 10850 10850 10850 10849 10849 10849 10849 10849 10848 10847 10847 10846 10845 10843 10842 10840 10838 10837 10836 10835 10835 10834 10833 10832 10832 10831 10831 10832 10832 10831 10829 10826 10823 10821 10819 10819 10818 10815 10813 10811 10809 10807 10805 10804 10802 10798 10796 10796 10795 10793 10792 10791 10790 10789 10789 10788 10787 10786 10785 10784 10782 10782 10781 10780 10779 10778 10777 10776 10774 10773 10772 10771 10769 10768 10767 10765 10764 10763 10761
10843 10843 10844 10844 10844 10844 10844 10844 10844 10844 10844 10844 10845 10844 10843 10843 10842 10841 10840 10838 10837 10835 10833 10832 10832 10832 10831 10830 10829 10828 10827 10827 10828 10828 10828 10827 10825 10823 10820 10818 10816 10816 10814 10812 10810 10807 10805 10804 10802 10801 10799 10796 10794 10793 10792 10791 10789 10789 10788 10787 10786 10785 10784 10783 10782 10781 10780 10779 10778 10777 10776 10775 10774 10773 10772 10771 10770 10768 10767 10765 10764 10762 10761 10760 10759
10838 10839 10839 10838 10838 10838 10839 10839 10839 10838 10839 10840 10840 10839 10839 10838 10837 10836 10835 10833 10832 10830 10829 10829 10828 10828 10827 10826 10825 10824 10824 10824 10824 10824 10823 10823 10822 10820 10817 10815 10813 10812 10811 10809 10807 10804 10802 10800 10799 10798 10797 10795 10792 10790 10789 10788 10787 10786 10785 10784 10783 10782 10781 10781 10780 10779 10778 10777 10776 10775 10774 10773 10772 10771 10770 10769 10767 10766 10765 10763 10761 10760 10758 10757 10756
10834 10834 10833 10833 10833 10833 10834 10834 10833 10833 10834 10834 10834 10834 10833 10833 10832 10831 10830 10828 10826 10825 10825 10825 10825 10824 10823 10822 10821 10820 10820 10820 10820 10820 10819 10819 10818 10817 10815 10812 10810 10809 10808 10806 10803 10800 10798 10797 10796 10795 10794 10793 10790 10788 10787 10786 10785 10784 10783 10782 10781 10780 10779 10778 10778 10777 10776 10775 10774 10773 10772 10770 10769 10769 10768 10767 10765 10764 10762 10761 10759 10757 10756 10755 10754
10829 10828 10828 10827 10827 10828 10828 10828 10828 10828 10829 10829 10828 10828 10828 10828 10827 10826 10824 10823 10821 10821 10821 10821 10821 10820 10819 10818 10817 10816 10816 10816 10816 10816 10815 10815 10815 10814 10812 10809 10807 10806 10805 10803 10800 10797 10794 10793 10792 10791 10791 10791 10788 10786 10784 10784 10783 10781 10780 10779 10779 10778 10777 10776 10775 10774 10773 10772 10771 10770 10769 10768 10767 10767 10766 10765 10763 10762 10761 10759 10757 10755 10754 10753 10752
10823 10823 10822 10822 10822 10823 10823 10823 10823 10823 10823 10823 10823 10823 10823 10823 10822 10820 10818 10817 10817 10817 10817 10817 10816 10815 10815 10814 10813 10812 10812 10812 10812 10811 10811 10811 10812 10811 10808 10806 10804 10803 10801 10799 10797 10794 10791 10790 10789 10788 10788 10788 10786 10784 10782 10782 10781 10779 10778 10777 10776 10776 10775 10775 10773 10772 10771 10770 10769 10768 10767 10766 10766 10765 10764 10763 10762 10760 10759 10758 10756 10754 10753 10752 10751
10818 10817 10816 10816 10817 10818 10818 10818 10817 10817 10817 10817 10817 10817 10817 10817 10815 10814 10813 10813 10814 10813 10813 10812 10812 10811 10810 10809 10809 10808 10808 10808 10807 10807 10807 10807 10808 10807 10805 10802 10801 10799 10798 10796 10794 10791 10788 10787 10786 10785 10784 10784 10784 10782 10780 10779 10778 10777 10775 10774 10774 10774 10773 10773 10772 10770 10769 10768 10767 10766 10765 10765 10764 10763 10762 10761 10760 10759 10758 10756 10755 10753 10752 10751 10750
10811 10811 10810 10811 10812 10813 10813 10812 10811 10811 10811 10811 10812 10812 10811 10810 10808 10808 10809 10810 10810 10809 10809 10808 10807 10806 10806 10805 10805 10804 10804 10804 10803 10802 10803 10803 10804 10804 10802 10799 10798 10796 10794 10793 10791 10788 10785 10784 10783 10781 10780 10781 10782 10781 10779 10777 10776 10775 10773 10772 10771 10771 10771 10770 10769 10768 10767 10766 10765 10764 10764 10763 10762 10761 10760 10759 10759 10758 10757 10755 10754 10752 10751 10750 10749
10805 10805 10805 10805 10806 10807 10806 10805 10805 10805 10805 10806 10806 10806 10804 10803 10802 10804 10805 10806 10805 10805 10804 10803 10803 10802 10802 10801 10801 10801 10801 10800 10799 10798 10798 10799 10799 10799 10798 10796 10795 10793 10791 10790 10787 10785 10783 10781 10780 10778 10777 10778 10779 10778 10777 10775 10774 10773 10772 10770 10769 10769 10769 10768 10767 10766 10765 10764 10763 10762 10762 10761 10760 10759 10758 10758 10757 10756 10755 10754 10753 10751 10750 10749 10748
10798 10799 10800 10800 10800 10800 10799 10799 10799 10799 10800 10800 10800 10799 10797 10797 10798 10800 10801 10801 10801 10800 10799 10798 10798 10798 10798 10798 10797 10797 10797 10796 10795 10795 10794 10794 10795 10795 10795 10794 10792 10790 10789 10786 10784 10782 10780 10778 10777 10776 10775 10774 10775 10776 10775 10773 10772 10770 10769 10768 10767 10766 10766 10766 10765 10764 10763 10763 10761 10760 10760 10759 10758 10758 10757 10757 10756 10755 10754 10753 10752 10751 10749 10748 10747
10792 10793 10793 10793 10793 10792 10791 10791 10792 10793 10794 10794 10793 10792 10792 10792 10794 10795 10796 10795 10795 10794 10794 10793 10793 10794 10794 10794 10793 10793 10793 10792 10791 10791 10790 10790 10790 10791 10791 10791 10790 10788 10786 10784 10781 10779 10778 10776 10774 10773 10772 10772 10772 10772 10772 10771 10769 10768 10767 10766 10765 10764 10764 10763 10763 10762 10761 10761 10760 10759 10758 10757 10757 10756 10756 10755 10754 10754 10753 10752 10751 10750 10748 10747 10746
10787 10786 10786 10785 10785 10784 10783 10784 10786 10787 10788 10788 10787 10787 10787 10788 10789 10790 10790 10790 10789 10789 10789 10789 10789 10790 10790 10790 10790 10790 10789 10788 10788 10787 10786 10786 10786 10787 10788 10788 10787 10785 10783 10781 10779 10776 10775 10774 10772 10771 10770 10769 10769 10769 10769 10769 10767 10766 10765 10764 10763 10763 10762 10761 10761 10760 10759 10759 10758 10757 10756 10756 10755 10754 10754 10754 10753 10752 10751 10750 10749 10748 10747 10746 10745
10780 10778 10777 10777 10777 10776 10776 10777 10779 10781 10782 10782 10781 10782 10782 10783 10784 10784 10785 10784 10784 10784 10785 10785 10785 10785 10786 10786 10786 10786 10786 10785 10784 10784 10783 10782 10783 10783 10784 10784 10784 10783 10781 10779 10776 10774 10773 10772 10770 10769 10768 10767 10766 10766 10766 10766 10765 10764 10763 10762 10761 10761 10760 10759 10759 10758 10757 10756 10756 10755 10755 10754 10753 10752 10752 10752 10751 10750 10749 10748 10748 10747 10746 10745 10744
10773 10771 10770 10770 10769 10768 10769 10770 10773 10775 10776 10776 10776 10777 10778 10779 10779 10779 10780 10780 10780 10780 10780 10780 10780 10781 10782 10782 10782 10782 10782 10781 10781 10780 10780 10779 10779 10780 10780 10781 10781 10780 10778 10776 10774 10772 10771 10769 10768 10767 10765 10764 10764 10763 10763 10763 10762 10762 10761 10760 10759 10758 10758 10757 10756 10756 10755 10754 10754 10753 10753 10752 10751 10751 10750 10750 10749 10748 10747 10746 10746 10745 10744 10743 10743
10766 10765 10764 10763 10762 10762 10763 10765 10767 10769 10769 10770 10771 10772 10774 10775 10775 10775 10775 10776 10776 10776 10775 10775 10776 10777 10778 10778 10778 10778 10778 10778 10778 10777 10777 10777 10777 10776 10776 10777 10778 10778 10776 10774 10772 10770 10769 10767 10766 10764 10763 10761 10761 10760 10759 10759 10759 10759 10758 10757 10757 10756 10756 10755 10754 10753 10753 10752 10752 10751 10750 10750 10749 10749 10748 10748 10747 10746 10745 10744 10744 10743 10742 10742 10741
10761 10760 10758 10756 10756 10757 10759 10760 10762 10763 10764 10765 10766 10768 10770 10771 10771 10771 10771 10771 10770 10770 10770 10770 10772 10773 10774 10774 10774 10775 10775 10775 10775 10774 10774 10774 10774 10773 10773 10773 10774 10774 10773 10772 10770 10768 10767 10765 10764 10762 10760 10759 10758 10757 10756 10756 10756 10756 10755 10755 10754 10753 10753 10753 10752 10751 10751 10750 10750 10749 10748 10748 10748 10747 10746 10746 10745 10744 10743 10742 10741 10741 10740 10740 10739
10757 10753 10751 10749 10750 10752 10754 10756 10756 10758 10759 10761 10762 10764 10765 10767 10768 10767 10767 10767 10766 10766 10766 10767 10768 10769 10770 10770 10771 10771 10771 10772 10771 10771 10771 10771 10770 10770 10770 10770 10770 10770 10770 10769 10767 10766 10764 10763 10762 10760 10758 10756 10755 10754 10753 10753 10753 10753 10752 10752 10751 10751 10750 10750 10749 10749 10749 10748 10748 10747 10746 10746 10745 10745 10744 10743 10742 10741 10740 10739 10739 10738 10737 10737 10737
10755 10749 10745 10744 10745 10747 10750 10751 10751 10753 10755 10757 10758 10760 10762 10763 10764 10764 10764 10763 10762 10762 10763 10764 10765 10766 10766 10766 10767 10767 10768 10768 10768 10768 10768 10767 10766 10766 10766 10766 10766 10767 10766 10766 10764 10763 10761 10760 10759 10758 10756 10754 10753 10752 10751 10751 10750 10750 10749 10749 10748 10748 10747 10747 10747 10746 10746 10746 10746 10745 10744 10744 10743 10742 10742 10740 10739 10738 10737 10736 10736 10735 10735 10734 10734
10750 10744 10739 10738 10740 10743 10744 10745 10746 10748 10751 10753 10754 10756 10758 10760 10761 10761 10760 10759 10759 10759 10760 10762 10762 10763 10763 10763 10763 10763 10764 10764 10764 10764 10764 10763 10763 10762 10762 10761 10761 10762 10762 10761 10761 10759 10758 10757 10756 10756 10755 10753 10751 10749 10748 10748 10747 10747 10746 10746 10745 10745 10745 10744 10744 10744 10744 10744 10744 10743 10742 10741 10740 10740 10738 10737 10736 10735 10734 10733 10733 10732 10732 10732 10732
10742 10737 10733 10732 10735 10737 10738 10740 10742 10744 10746 10749 10751 10754 10756 10758 10759 10758 10756 10756 10756 10756 10757 10758 10759 10760 10760 10760 10760 10759 10760 10760 10761 10761 10760 10760 10759 10758 10758 10757 10757 10757 10757 10757 10757 10756 10755 10754 10753 10752 10752 10751 10749 10747 10746 10745 10744 10743 10743 10743 10742 10742 10742 10742 10741 10741 10741 10742 10741 10741 10740 10739 10738 10737 10736 10734 10733 10731 10731 10730 10729 10729 10728 10729 10729
10734 10732 10730 10729 10731 10732 10735 10737 10738 10740 10743 10745 10748 10750 10754 10760 10760 10754 10752 10753 10753 10754 10754 10754 10755 10756 10756 10756 10756 10755 10755 10756 10757 10757 10756 10756 10755 10755 10754 10753 10753 10754 10754 10753 10753 10753 10752 10751 10749 10749 10748 10747 10746 10745 10744 10742 10741 10741 10740 10740 10740 10740 10740 10739 10739 10739 10739 10739 10739 10738 10738 10736 10735 10734 10733 10732 10730 10728 10728 10727 10726 10725 10725 10725 10726
10729 10729 10728 10727 10728 10729 10731 10733 10735 10737 10739 10741 10744 10747 10753 10760 10759 10751 10748 10749 10749 10750 10751 10750 10751 10752 10752 10752 10752 10751 10751 10751 10752 10753 10753 10752 10752 10751 10751 10750 10750 10750 10750 10750 10749 10749 10748 10747 10746 10745 10744 10744 10743 10742 10741 10740 10739 10738 10738 10737 10737 10737 10737 10737 10737 10737 10736 10736 10736 10736 10736 10734 10732 10731 10730 10729 10727 10726 10725 10724 10723 10722 10722 10723 10724
10727 10726 10724 10724 10725 10725 10726 10728 10730 10732 10735 10738 10740 10744 10750 10755 10753 10747 10745 10746 10746 10746 10746 10747 10747 10748 10749 10749 10749 10748 10748 10748 10748 10748 10749 10748 10747 10747 10747 10746 10746 10746 10746 10746 10745 10745 10744 10743 10742 10741 10741 10741 10740 10739 10738 10737 10736 10736 10735 10735 10735 10735 10735 10735 10734 10734 10734 10734 10735 10734 10733 10731 10729 10727 10727 10726 10725 10723 10722 10721 10720 10720 10720 10720 10722
10723 10722 10720 10719 10720 10721 10721 10723 10725 10727 10730 10733 10736 10739 10744 10747 10746 10743 10743 10742 10743 10743 10742 10743 10743 10744 10745 10745 10745 10745 10745 10745 10745 10744 10744 10744 10743 10743 10742 10742 10742 10742 10742 10742 10741 10741 10740 10739 10739 10738 10737 10737 10737 10736 10735 10734 10734 10733 10733 10732 10732 10732 10732 10732 10732 10731 10732 10732 10732 10731 10730 10729 10727 10725 10724 10724 10722 10721 10720 10719 10719 10719 10719 10719 10720
10719 10718 10716 10715 10715 10717 10717 10718 10720 10722 10725 10728 10730 10734 10737 10739 10739 10739 10739 10739 10739 10738 10738 10738 10739 10739 10740 10741 10741 10741 10741 10741 10741 10740 10740 10739 10739 10738 10738 10737 10737 10737 10738 10737 10737 10737 10736 10736 10735 10735 10734 10734 10733 10733 10732 10731 10731 10730 10730 10730 10729 10729 10729 10729 10729 10729 10730 10730 10729 10728 10728 10728 10727 10724 10722 10721 10720 10719 10718 10717 10717 10717 10718 10718 10719
10714 10713 10712 10711 10711 10712 10713 10714 10715 10716 10719 10722 10725 10728 10731 10732 10733 10733 10734 10734 10734 10734 10733 10733 10734 10734 10735 10736 10737 10737 10737 10736 10737 10736 10736 10736 10735 10734 10733 10732 10733 10733 10733 10733 10733 10732 10732 10732 10732 10731 10731 10731 10730 10730 10729 10728 10728 10727 10727 10727 10727 10727 10727 10727 10727 10727 10728 10727 10725 10726 10726 10725 10724 10721 10719 10718 10717 10716 10716 10715 10715 10716 10716 10717 10718
10708 10708 10708 10708 10707 10708 10709 10710 10710 10712 10714 10717 10719 10722 10724 10725 10726 10727 10728 10729 10729 10729 10729 10729 10729 10729 10730 10731 10732 10732 10732 10732 10732 10732 10732 10732 10731 10730 10729 10728 10728 10729 10729 10729 10729 10728 10728 10728 10728 10728 10728 10728 10727 10727 10726 10725 10725 10725 10724 10724 10724 10724 10724 10724 10724 10725 10725 10724 10723 10723 10723 10722 10720 10719 10717 10716 10714 10713 10713 10713 10714 10714 10715 10715 10716
10701 10702 10703 10703 10703 10704 10705 10706 10707 10708 10709 10711 10714 10716 10717 10719 10720 10721 10722 10723 10724 10724 10724 10724 10724 10725 10726 10726 10727 10728 10729 10728 10727 10728 10728 10728 10728 10727 10726 10725 10725 10725 10725 10725 10725 10724 10724 10724 10724 10724 10724 10724 10724 10724 10723 10723 10722 10722 10721 10721 10721 10721 10721 10721 10721 10721 10721 10721 10721 10720 10719 10718 10717 10716 10716 10715 10712 10711 10711 10711 10712 10712 10713 10713 10713
10695 10696 10697 10699 10699 10700 10702 10703 10704 10704 10705 10707 10709 10710 10711 10713 10714 10715 10716 10717 10718 10718 10718 10719 10719 10720 10720 10721 10722 10723 10724 10723 10723 10724 10724 10724 10724 10723 10723 10722 10722 10722 10722 10722 10721 10720 10720 10720 10720 10720 10721 10721 10721 10721 10720 10720 10719 10719 10718 10718 10718 10718 10718 10718 10718 10718 10718 10718 10718 10715 10714 10713 10714 10714 10713 10713 10711 10709 10709 10709 10710 10710 10711 10711 10711
10689 10690 10692 10694 10694 10696 10698 10699 10701 10701 10702 10703 10704 10705 10706 10706 10708 10709 10710 10711 10712 10712 10713 10713 10714 10714 10715 10715 10716 10717 10718 10718 10718 10719 10719 10720 10720 10720 10720 10719 10719 10719 10718 10718 10717 10716 10716 10716 10716 10717 10717 10717 10718 10717 10717 10716 10716 10715 10715 10715 10715 10715 10715 10715 10714 10714 10714 10715 10714 10711 10710 10710 10711 10711 10709 10709 10709 10708 10708 10708 10709 10709 10709 10708 10708
10682 10685 10687 10688 10689 10691 10693 10694 10696 10698 10700 10700 10700 10700 10701 10701 10702 10702 10703 10705 10706 10707 10707 10708 10709 10709 10710 10710 10710 10711 10712 10712 10712 10713 10714 10715 10715 10716 10716 10716 10715 10715 10715 10715 10714 10713 10712 10713 10713 10713 10714 10714 10714 10714 10713 10713 10712 10712 10712 10712 10712 10711 10711 10711 10711 10711 10711 10711 10710 10708 10708 10708 10707 10706 10706 10706 10706 10706 10706 10706 10707 10707 10706 10706 10705
10676 10679 10681 10683 10684 10686 10688 10690 10694 10698 10697 10695 10694 10695 10695 10696 10696 10697 10698 10700 10701 10701 10701 10703 10704 10704 10704 10704 10704 10705 10706 10707 10707 10708 10710 10710 10711 10711 10711 10711 10711 10711 10711 10710 10710 10709 10709 10709 10710 10710 10710 10710 10710 10710 10710 10709 10709 10709 10708 10708 10708 10708 10708 10708 10708 10708 10708 10707 10706 10706 10705 10704 10703 10702 10702 10703 10704 10704 10703 10704 10704 10704 10703 10703 10703
10670 10673 10676 10678 10679 10680 10682 10685 10692 10695 10691 10686 10686 10688 10688 10689 10690 10692 10694 10695 10695 10695 10696 10698 10698 10698 10698 10698 10699 10700 10701 10702 10703 10704 10705 10706 10706 10707 10707 10707 10707 10707 10706 10706 10706 10705 10706 10706 10706 10706 10706 10706 10706 10706 10706 10706 10706 10705 10705 10705 10705 10705 10705 10705 10705 10705 10704 10704 10703 10703 10703 10702 10701 10699 10699 10700 10701 10701 10701 10701 10701 10701 10700 10700 10700
10663 10666 10670 10672 10673 10674 10676 10679 10684 10686 10683 10680 10680 10682 10682 10683 10685 10687 10689 10690 10690 10690 10692 10693 10692 10692 10692 10693 10694 10695 10696 10697 10698 10700 10701 10702 10702 10702 10702 10702 10702 10702 10702 10702 10702 10702 10702 10702 10702 10702 10702 10703 10703 10703 10703 10702 10702 10702 10701 10701 10701 10701 10702 10702 10702 10702 10701 10701 10701 10700 10700 10700 10699 10698 10697 10698 10698 10699 10698 10698 10698 10698 10698 10697 10697
10655 10659 10663 10666 10668 10668 10670 10673 10676 10678 10677 10676 10676 10677 10677 10679 10681 10683 10685 10685 10685 10686 10687 10687 10686 10687 10687 10688 10689 10691 10692 10693 10694 10695 10696 10697 10698 10698 10698 10698 10698 10698 10698 10698 10698 10698 10698 10698 10699 10699 10699 10699 10699 10699 10699 10699 10699 10698 10698 10698 10698 10698 10698 10698 10698 10698 10698 10698 10698 10697 10697 10697 10697 10696 10695 10695 10695 10695 10695 10696 10696 10695 10694 10694 10694
10649 10652 10657 10660 10662 10662 10664 10668 10670 10671 10672 10672 10672 10672 10674 10675 10677 10679 10680 10680 10680 10681 10681 10681 10681 10682 10682 10683 10685 10686 10687 10689 10690 10691 10692 10693 10693 10693 10693 10693 10693 10693 10694 10694 10694 10694 10694 10695 10695 10695 10695 10696 10696 10696 10696 10696 10695 10695 10695 10695 10695 10695 10695 10695 10695 10695 10695 10695 10695 10694 10694 10694 10694 10693 10692 10692 10692 10692 10692 10692 10692 10692 10691 10691 10691
10643 10647 10651 10654 10656 10657 10659 10662 10664 10666 10667 10667 10668 10668 10669 10671 10672 10673 10674 10674 10675 10675 10676 10676 10677 10677 10678 10679 10680 10682 10683 10684 10685 10686 10687 10688 10689 10689 10689 10688 10688 10689 10689 10690 10690 10690 10690 10690 10691 10691 10692 10692 10692 10692 10692 10692 10692 10692 10692 10692 10691 10691 10691 10691 10691 10691 10691 10691 10691 10691 10691 10691 10690 10689 10689 10689 10689 10689 10689 10688 10688 10688 10688 10687 10687
10639 10642 10646 10649 10651 10653 10654 10658 10659 10660 10661 10662 10663 10664 10665 10666 10667 10668 10668 10669 10669 10670 10671 10672 10672 10673 10674 10675 10676 10678 10679 10680 10681 10682 10683 10684 10684 10684 10684 10684 10684 10684 10685 10685 10686 10686 10686 10686 10687 10687 10688 10688 10688 10689 10689 10689 10689 10689 10689 10688 10688 10688 10688 10688 10687 10687 10688 10688 10688 10688 10688 10688 10687 10686 10686 10685 10685 10685 10685 10685 10684 10684 10684 10684 10684
10634 10637 10641 10645 10647 10648 10651 10654 10655 10656 10657 10658 10659 10660 10661 10662 10662 10662 10663 10663 10664 10665 10666 10667 10668 10669 10670 10671 10673 10674 10675 10676 10677 10678 10679 10679 10680 10680 10680 10680 10680 10680 10681 10681 10682 10682 10682 10682 10683 10684 10684 10684 10685 10685 10686 10686 10686 10686 10686 10685 10685 10685 10684 10684 10684 10684 10684 10684 10684 10684 10684 10684 10684 10684 10683 10682 10682 10682 10681 10681 10681 10680 10680 10680 10680
10630 10633 10638 10642 10644 10645 10647 10649 10651 10652 10654 10655 10656 10656 10656 10657 10657 10657 10657 10658 10659 10661 10662 10663 10664 10665 10667 10668 10669 10670 10671 10672 10673 10674 10675 10675 10675 10676 10676 10676 10676 10676 10677 10678 10678 10678 10678 10679 10679 10680 10680 10681 10682 10682 10683 10682 10682 10682 10682 10682 10681 10681 10681 10681 10680 10680 10680 10680 10680 10681 10681 10681 10681 10680 10680 10680 10679 10679 10679 10678 10678 10677 10676 10676 10677
10627 10631 10636 10639 10640 10642 10644 10646 10648 10649 10651 10653 10651 10648 10649 10650 10650 10651 10651 10653 10655 10657 10658 10659 10660 10661 10663 10664 10665 10666 10667 10668 10669 10670 10671 10671 10672 10672 10673 10673 10673 10673 10673 10674 10675 10675 10675 10675 10676 10676 10676 10677 10678 10679 10679 10679 10678 10678 10678 10678 10678 10677 10677 10677 10677 10676 10677 10677 10677 10677 10677 10677 10677 10677 10677 10677 10677 10676 10676 10675 10674 10674 10673 10673 10673
10625 10629 10633 10635 10636 10639 10641 10643 10645 10647 10651 10651 10643 10639 10642 10644 10644 10645 10646 10648 10651 10653 10653 10654 10656 10657 10658 10660 10660 10661 10662 10663 10664 10665 10666 10667 10668 10669 10669 10669 10669 10670 10670 10670 10671 10671 10672 10672 10672 10672 10672 10673 10674 10675 10675 10674 10674 10674 10674 10674 10674 10674 10673 10673 10673 10673 10673 10673 10673 10673 10674 10674 10674 10674 10674 10674 10674 10673 10672 10672 10671 10670 10670 10670 10670